STARLINK-1634 (46152 NORAD) Tracking and Keplerian Element Data

This shows tracking and keplerian element data for the satellite.

Feedback or suggestion? Click here.




ElementValue
Catalog46152
NameSTARLINK-1634
Epoch Orbit179
Epoch Day332.91668981
Epoch Year2020
RAAN330.7202
Inclination52.9992
Eccentricity0.0001556
Argument of Perigee68.9052
Mean Anonmoly77.3708
Mean Motion15.05572213
Decay Rate0.00037008
L11 46152U 20057AM 20332.91668981 .00037008 00000-0 25463-2 0 9990
L22 46152 52.9992 330.7202 0001556 68.9052 77.3708 15.05572213 1790

Live tracking and technical data element details for STARLINK-1634 (NORAD 46152). STARLINK-1634 can be tracked NOW for your location showing map with azimuth and elevation plus other details from your city location.

Track the satellite on the map from your city or location and see movement details for azimuth, elevation, latitude, longitude, range, height, and movement on the map or in text.







IsCatalogInMostPopularTable: catalog: 46152, numindb: 14
Update: records affected: 1



GetName: 46152 STARLINK-1634

Hit Count: updated at: Sun, 29 Nov 2020 10:56:45 GMT